DW5375 Weather Reports


time (UTC)temp
F
wind
direction
speed
knots
gust
knots
rain 1hr
in
rain 24hr
in
rain mn
in
humidity
%
barometer
mb
20260503224541 0 48 1.7 5.2 0.00 0.00 0.00 1011.7
20260503223038 0 44 1.7 6.1 0.00 0.00 0.00 1012.0
20260503221533 0 24 2.6 5.2 0.00 0.00 0.00 1012.1
20260503220028 0 5 2.6 7.0 0.00 0.00 0.00 1012.3
20260503214526 0 38 2.6 6.1 0.00 0.00 0.00 1012.4
20260503213019 0 38 3.5 7.0 0.00 0.00 0.00 1012.7
20260503211514 0 41 3.5 7.0 0.00 0.00 0.00 1012.7
20260503210010 0 29 3.5 6.1 0.00 0.00 0.00 1012.9
20260503204515 0 22 0.9 5.2 0.00 0.00 0.00 1013.2
20260503203004 0 23 2.6 4.3 0.00 0.00 0.00 1013.5
20260503201557 0 26 1.7 5.2 0.00 0.00 0.00 1013.6
20260503200056 0 11 1.7 5.2 0.00 0.00 0.00 1013.7
20260503194548 0 12 3.5 7.0 0.00 0.00 0.00 1013.8
20260503193046 0 42 3.5 6.1 0.00 0.00 0.00 1013.9
20260503191540 0 13 3.5 7.0 0.00 0.00 0.00 1014.0
20260503190035 0 49 1.7 9.6 0.00 0.00 0.00 1014.1
20260503184531 0 36 2.6 8.7 0.00 0.00 0.00 1014.3
20260503183026 0 28 2.6 7.8 0.00 0.00 0.00 1014.5
20260503181522 0 28 2.6 7.8 0.00 0.00 0.00 1014.6
20260503180031 0 25 1.7 6.1 0.00 0.00 0.00 1014.7
20260503174516 0 11 2.6 4.3 0.00 0.00 0.00 1014.9
20260503173012 0 34 1.7 5.2 0.00 0.00 0.00 1014.9
20260503171507 0 62 0.9 4.3 0.00 0.00 0.00 1015.0
20260503081527 0 91 0.0 0.9 0.00 0.00 0.00 1014.9
20260503071511 0 90 0.0 0.9 0.00 0.00 0.00 1014.7
20260503060109 0 91 0.0 0.0 0.00 0.00 0.00 1014.6
20260503054546 0 90 0.0 0.0 0.00 0.00 0.00 1014.6
20260503053040 0 90 0.0 0.0 0.00 0.00 0.00 1014.6
20260503051535 0 90 0.0 0.0 0.00 0.00 0.00 1014.6
20260503050034 0 90 0.0 0.0 0.00 0.00 0.00 1014.6
20260503044526 0 90 0.0 0.0 0.00 0.00 0.00 1014.4
20260503043036 0 90 0.0 0.0 0.00 0.00 0.00 1014.4
20260503041518 0 90 0.0 0.0 0.00 0.00 0.00 1014.3
20260503040013 0 90 0.0 0.0 0.00 0.00 0.00 1014.2
20260503034509 0 90 0.0 1.7 0.00 0.00 0.00 1014.0
20260503033015 0 90 0.0 1.7 0.00 0.00 0.00 1013.7
20260503031602 0 90 0.9 2.6 0.00 0.00 0.00 1013.6
20260503024551 0 90 0.9 2.6 0.00 0.00 0.00 1013.5
20260503023055 0 90 0.0 0.9 0.00 0.00 0.00 1013.5
20260503021551 0 90 0.0 1.7 0.00 0.00 0.00 1013.6
20260503020047 0 68 0.0 2.6 0.00 0.00 0.00 1013.6
20260503014533 0 48 0.0 2.6 0.00 0.00 0.00 1013.7
20260503013030 0 35 1.7 3.5 0.00 0.00 0.00 1013.8
20260503011525 0 15 1.7 2.6 0.00 0.00 0.00 1014.0
20260503010021 0 5 0.9 2.6 0.00 0.00 0.00 1014.1
20260503004516 0 5 0.9 5.2 0.00 0.00 0.00 1014.2
20260503003014 0 360 1.7 4.3 0.00 0.00 0.00 1014.3
20260503001508 0 11 0.9 4.3 0.00 0.00 0.00 1014.3
20260503000005 0 5 1.7 4.3 0.00 0.00 0.00 1014.5
20260502234559 0 5 1.7 3.5 0.00 0.00 0.00 1014.6
20260502233055 0 355 1.7 4.3 0.00 0.00 0.00 1014.7
20260502231549 0 5 1.7 4.3 0.00 0.00 0.00 1014.8
20260502230046 0 313 1.7 7.0 0.00 0.00 0.00 1015.0